TimeEST,TemperatureF,Dew PointF,Humidity,Sea Level PressureIn,VisibilityMPH,Wind Direction,Wind SpeedMPH,Gust SpeedMPH,PrecipitationIn,Events,Conditions,WindDirDegrees,DateUTC
12:53 AM,25.0,23.0,92,30.38,10.0,WSW,5.8,-,N/A,,Clear,240,2013-02-11 05:53:00
1:53 AM,26.1,23.0,88,30.36,10.0,SW,4.6,-,N/A,,Clear,220,2013-02-11 06:53:00
4:53 AM,35.1,28.9,78,30.29,10.0,South,5.8,-,N/A,,Clear,170,2013-02-11 09:53:00
5:53 AM,36.0,28.9,76,30.28,10.0,SSE,6.9,-,N/A,,Clear,160,2013-02-11 10:53:00
6:53 AM,37.0,30.9,79,30.28,10.0,SSE,8.1,-,N/A,,Mostly Cloudy,160,2013-02-11 11:53:00
7:53 AM,39.0,33.1,79,30.24,10.0,SSE,12.7,-,N/A,,Mostly Cloudy,150,2013-02-11 12:53:00
8:53 AM,39.9,34.0,79,30.22,10.0,SSE,13.8,-,N/A,,Overcast,150,2013-02-11 13:53:00
9:53 AM,41.0,35.1,79,30.18,10.0,SSE,13.8,-,N/A,,Overcast,150,2013-02-11 14:53:00
10:53 AM,41.0,37.0,86,30.12,8.0,SE,16.1,-,N/A,Rain,Light Rain,140,2013-02-11 15:53:00
11:53 AM,43.0,39.0,86,30.04,5.0,SSE,19.6,-,0.02,Rain,Light Rain,150,2013-02-11 16:53:00
12:53 PM,43.0,39.0,86,29.98,9.0,SSE,19.6,-,0.01,Rain,Light Rain,160,2013-02-11 17:53:00
2:12 PM,44.6,41.0,87,29.90,3.0,SSE,20.7,-,0.02,Rain,Light Rain,160,2013-02-11 19:12:00
2:42 PM,44.6,42.8,93,29.89,2.0,South,16.1,-,0.05,Rain,Light Rain,170,2013-02-11 19:42:00
2:49 PM,44.6,42.8,93,29.89,2.0,SSE,19.6,25.3,0.06,Rain,Light Rain,160,2013-02-11 19:49:00
2:53 PM,45.0,42.1,90,29.88,2.0,South,17.3,-,0.06,Rain,Light Rain,170,2013-02-11 19:53:00
3:37 PM,44.6,42.8,93,29.84,1.8,South,17.3,24.2,0.01,Rain,Light Rain,180,2013-02-11 20:37:00
3:53 PM,45.0,44.1,97,29.82,1.2,South,19.6,29.9,0.01,Rain,Light Rain,170,2013-02-11 20:53:00
4:53 PM,46.9,45.0,93,29.77,0.8,South,24.2,33.4,0.06,Rain,Light Rain,180,2013-02-11 21:53:00
5:53 PM,46.0,45.0,96,29.74,0.8,South,18.4,-,0.08,Rain,Light Rain,190,2013-02-11 22:53:00
6:53 PM,45.0,44.1,97,29.73,0.8,SW,12.7,-,0.06,Rain,Light Rain,230,2013-02-11 23:53:00
7:49 PM,44.6,44.6,100,29.71,0.2,SW,10.4,-,0.03,Fog,Fog,230,2013-02-12 00:49:00
7:53 PM,45.0,44.1,97,29.70,0.2,SW,10.4,-,0.03,Fog,Fog,220,2013-02-12 00:53:00
8:53 PM,43.0,43.0,100,29.68,0.2,SW,11.5,-,N/A,Fog,Fog,230,2013-02-12 01:53:00
9:53 PM,43.0,42.1,97,29.66,0.2,WSW,10.4,-,N/A,Fog,Fog,240,2013-02-12 02:53:00
10:53 PM,43.0,42.1,97,29.64,0.2,SW,11.5,-,N/A,Fog,Fog,230,2013-02-12 03:53:00
11:53 PM,44.1,43.0,96,29.62,0.2,WSW,15.0,-,0.01,Fog,Fog,240,2013-02-12 04:53:00